Location: Lombard
(41.8800°N, 88.0080°W)
Time: 19:59:51
(UTC-05:00)

Oscar 11 - Pass Details

Date: 24 May 2022
Orbit: 613 x 622 km, 97.6° (Epoch: 28 June)

Event Time Altitude Azimuth Distance (km) Brightness Sun altitude
Rises 04:31:59 0° 37° (NE) 2,896 12.3 -8.9°
Reaches altitude 10° 04:36:24 10° 80° (E) 1,985 10.8 -8.2°
Maximum altitude 04:37:02 10° 89° (E) 1,966 10.5 -8.1°
Drops below altitude 10° 04:37:40 10° 97° (E) 1,983 10.4 -8.0°
Sets 04:42:03 0° 140° (SE) 2,883 10.5 -7.4°
